Date String (YYYY-MM-DD hh:mm:ss) UTC,Instrument flags,Ambient pressure (hPa),Sample flow (lpm),Bypass flow (lpm),Sample temperature (°C),Ambient temperature (°C),ASC tube jacket temperature (°C),LED temperature (°C),Box temperature (°C),Sample RH (%),Span deviation,Mass concentration (μg/m³),Mass concentration (μg/m³),Mass concentration (μg/m³)
DateTimeUTC,F1_M11,P_M11,Q1_M11,Q2_M11,T1_M11,T2_M11,T3_M11,T4_M11,T5_M11,U1_M11,ZSPAN_M11,X0_M11,X2_M11,X1_M11
2023-04-30 05:00:00,,0831.5,5.00,0.00,29.3,28.1,00.0,37.6,30.9,14.0,0000.0,0010.76,0004.17,0002.43
2023-04-30 05:01:00,,0831.4,5.00,0.00,29.4,28.1,00.0,37.6,30.9,14.1,0000.0,0010.66,0004.20,0002.43
2023-04-30 05:02:00,,0831.4,4.99,0.00,29.4,28.1,00.0,37.6,30.9,14.1,0000.0,0010.08,0004.13,0002.44
2023-04-30 05:03:00,,0831.4,5.00,0.00,29.4,28.1,00.0,37.7,30.9,14.0,0000.0,0010.05,0004.14,0002.43
2023-04-30 05:04:00,,0831.5,5.00,0.00,29.4,28.1,00.0,37.7,30.9,14.2,0000.0,0010.17,0004.21,0002.48
2023-04-30 05:05:00,,0831.4,5.00,0.00,29.4,28.1,00.0,37.7,31.0,14.1,0000.0,0010.34,0004.25,0002.49
2023-04-30 05:06:00,,0831.4,5.02,0.00,29.4,28.1,00.0,37.7,31.0,14.0,0000.0,0010.59,0004.23,0002.51
2023-04-30 05:07:00,,0831.4,5.00,0.00,29.4,28.1,00.0,37.7,31.0,14.1,0000.0,0010.87,0004.28,0002.50
2023-04-30 05:08:00,,0831.4,4.98,0.00,29.4,28.0,00.0,37.7,31.0,13.9,0000.0,0011.72,0004.26,0002.50
2023-04-30 05:09:00,,0831.4,5.00,0.00,29.4,28.0,00.0,37.7,30.9,13.9,0000.0,0013.44,0004.25,0002.49
2023-04-30 05:10:00,,0831.5,5.01,0.00,29.4,28.0,00.0,37.7,30.9,14.0,0000.0,0014.10,0004.36,0002.50
2023-04-30 05:11:00,,0831.4,5.00,0.00,29.4,28.0,00.0,37.7,31.0,14.0,0000.0,0014.16,0004.39,0002.51
2023-04-30 05:12:00,,0831.4,4.99,0.00,29.4,28.0,00.0,37.7,31.0,14.0,0000.0,0014.54,0004.43,0002.53
2023-04-30 05:13:00,,0831.5,5.00,0.00,29.4,28.0,00.0,37.8,31.0,13.9,0000.0,0015.10,0004.51,0002.53
2023-04-30 05:14:00,,0831.5,5.00,0.00,29.4,28.0,00.0,37.8,31.0,13.8,0000.0,0015.53,0004.60,0002.53
2023-04-30 05:15:00,,0831.5,5.00,0.00,29.5,28.0,00.0,37.8,31.0,13.9,0000.0,0016.07,0004.61,0002.53
2023-04-30 05:16:00,,0831.5,5.00,0.00,29.5,28.0,00.0,37.8,31.0,13.8,0000.0,0017.35,0004.65,0002.54
2023-04-30 05:17:00,,0831.4,5.00,0.00,29.5,28.0,00.0,37.8,31.0,13.8,0000.0,0018.63,0004.73,0002.55
2023-04-30 05:18:00,,0831.5,5.00,0.00,29.5,28.1,00.0,37.8,31.0,13.8,0000.0,0018.39,0004.72,0002.56
2023-04-30 05:19:00,,0831.4,5.00,0.00,29.5,28.1,00.0,37.8,31.0,13.7,0000.0,0017.45,0004.78,0002.56
2023-04-30 05:20:00,,0831.5,5.00,0.00,29.5,28.1,00.0,37.8,31.0,13.7,0000.0,0015.86,0004.80,0002.58
2023-04-30 05:21:00,,0831.5,5.00,0.00,29.5,28.1,00.0,37.8,31.0,13.7,0000.0,0015.74,0004.76,0002.59
2023-04-30 05:22:00,,0831.5,5.00,0.00,29.5,28.1,00.0,37.8,31.1,13.7,0000.0,0015.94,0004.76,0002.59
2023-04-30 05:23:00,,0831.5,5.00,0.00,29.5,28.1,00.0,37.9,31.1,13.7,0000.0,0015.69,0004.76,0002.59
2023-04-30 05:24:00,,0831.5,5.00,0.00,29.5,28.1,00.0,37.9,31.1,13.7,0000.0,0015.66,0004.76,0002.61
2023-04-30 05:25:00,,0831.6,5.00,0.00,29.5,28.1,00.0,37.9,31.1,13.8,0000.0,0016.27,0004.71,0002.60
2023-04-30 05:26:00,,0831.5,5.00,0.00,29.5,28.1,00.0,37.9,31.1,13.8,0000.0,0016.90,0004.71,0002.60
2023-04-30 05:27:00,,0831.5,5.00,0.00,29.6,28.1,00.0,37.9,31.1,13.8,0000.0,0015.84,0004.68,0002.58
2023-04-30 05:28:00,,0831.5,5.00,0.00,29.5,28.1,00.0,37.9,31.1,13.8,0000.0,0014.43,0004.61,0002.56
2023-04-30 05:29:00,,0831.5,5.00,0.00,29.6,28.1,00.0,37.9,31.1,13.8,0000.0,0013.89,0004.56,0002.56
2023-04-30 05:30:00,,0831.5,5.00,0.00,29.6,28.1,00.0,37.9,31.1,13.8,0000.0,0014.98,0004.59,0002.58
2023-04-30 05:31:00,,0831.6,5.00,0.00,29.6,28.1,00.0,37.9,31.1,13.8,0000.0,0016.62,0004.62,0002.57
2023-04-30 05:32:00,,0831.5,4.99,0.00,29.6,28.1,00.0,37.9,31.1,13.7,0000.0,0017.06,0004.61,0002.55
2023-04-30 05:33:00,,0831.6,4.99,0.00,29.6,28.1,00.0,37.9,31.1,13.8,0000.0,0016.97,0004.61,0002.56
2023-04-30 05:34:00,,0831.5,5.00,0.00,29.6,28.1,00.0,37.9,31.1,13.7,0000.0,0017.14,0004.59,0002.54
2023-04-30 05:35:00,,0831.6,5.00,0.00,29.6,28.1,00.0,37.9,31.1,13.8,0000.0,0017.24,0004.56,0002.52
2023-04-30 05:36:00,,0831.6,5.00,0.00,29.6,28.1,00.0,37.9,31.1,13.8,0000.0,0016.99,0004.60,0002.55
2023-04-30 05:37:00,,0831.5,5.00,0.00,29.6,28.1,00.0,37.9,31.1,13.8,0000.0,0016.60,0004.54,0002.56
2023-04-30 05:38:00,,0831.5,5.00,0.00,29.6,28.1,00.0,37.9,31.1,13.8,0000.0,0016.93,0004.54,0002.57
2023-04-30 05:39:00,,0831.6,5.02,0.00,29.6,28.1,00.0,37.9,31.1,14.0,0000.0,0017.80,0004.61,0002.58
2023-04-30 05:40:00,,0831.6,5.00,0.00,29.6,28.1,00.0,37.9,31.1,13.9,0000.0,0017.56,0004.64,0002.62
2023-04-30 05:41:00,,0831.6,4.99,0.00,29.6,28.0,00.0,37.9,31.1,14.0,0000.0,0016.51,0004.60,0002.63
2023-04-30 05:42:00,,0831.7,5.00,0.00,29.6,28.0,00.0,37.9,31.1,14.1,0000.0,0015.08,0004.58,0002.64
2023-04-30 05:43:00,,0831.7,5.00,0.00,29.6,28.0,00.0,37.9,31.1,14.4,0000.0,0014.03,0004.64,0002.71
2023-04-30 05:44:00,,0831.7,5.00,0.00,29.6,28.0,00.0,37.9,31.1,14.5,0000.0,0013.99,0004.69,0002.77
2023-04-30 05:45:00,,0831.7,5.00,0.00,29.6,28.0,00.0,37.9,31.1,14.5,0000.0,0014.07,0004.75,0002.90
2023-04-30 05:46:00,,0831.7,5.00,0.00,29.6,28.0,00.0,37.9,31.1,14.5,0000.0,0014.29,0004.78,0002.97
2023-04-30 05:47:00,,0831.7,5.00,0.00,29.5,28.0,00.0,37.9,31.0,14.6,0000.0,0016.00,0004.92,0003.04
2023-04-30 05:48:00,,0831.9,5.00,0.00,29.5,28.0,00.0,37.9,31.0,14.5,0000.0,0015.94,0005.00,0003.10
2023-04-30 05:49:00,,0832.2,5.00,0.00,29.5,28.0,00.0,37.9,31.0,14.5,0000.0,0015.59,0005.07,0003.12
2023-04-30 05:50:00,,0832.2,5.00,0.00,29.5,28.0,00.0,37.9,31.0,14.7,0000.0,0014.82,0005.06,0003.16
2023-04-30 05:51:00,,0831.9,5.02,0.00,29.5,27.9,00.0,37.9,31.0,14.6,0000.0,0015.69,0005.13,0003.20
2023-04-30 05:52:00,,0831.8,4.99,0.00,29.5,27.9,00.0,37.9,31.0,14.6,0000.0,0016.59,0005.19,0003.23
2023-04-30 05:53:00,,0831.8,4.99,0.00,29.5,27.9,00.0,37.9,31.0,14.5,0000.0,0017.14,0005.17,0003.26
2023-04-30 05:54:00,,0831.8,5.00,0.00,29.5,27.9,00.0,37.9,30.9,14.5,0000.0,0017.73,0005.12,0003.26
2023-04-30 05:55:00,,0831.8,5.01,0.00,29.5,27.9,00.0,37.9,31.0,14.6,0000.0,0017.75,0005.12,0003.25
2023-04-30 05:56:00,,0831.8,5.00,0.00,29.5,27.9,00.0,37.9,30.9,14.7,0000.0,0017.72,0005.10,0003.23
2023-04-30 05:57:00,,0831.8,4.99,0.00,29.5,27.9,00.0,37.9,30.9,14.8,0000.0,0018.18,0005.21,0003.24
2023-04-30 05:58:00,,0831.9,5.00,0.00,29.5,27.9,00.0,37.9,31.0,14.7,0000.0,0017.38,0005.17,0003.23
2023-04-30 05:59:00,,0831.9,4.99,0.00,29.5,27.9,00.0,37.9,30.9,14.8,0000.0,0017.17,0005.16,0003.23
